Overview Statistics Trail Chart Weather Telemetry Raw packets
 

This is the latest recevied weather packets stored in our database for station/object W5ITZ. If no packets are shown the sender has not sent any weather packets the latest 10 day(s).

<< 103 104 105 106 107 108 109 >>
Time Temp. Humidity Pressure Rain* Wind** Luminosity Snow
1787445128 31.67° C 65% 1014.3 hPa 0 mm - 29 W/m² -
1787444823 32.22° C 65% 1014.2 hPa 0 mm - 36 W/m² -
1787444520 32.22° C 64% 1014.2 hPa 0 mm - 41 W/m² -
1787444215 32.78° C 63% 1014.3 hPa 0 mm - 48 W/m² -
1787443914 32.78° C 62% 1014.5 hPa 0 mm - 55 W/m² -
1787443613 32.78° C 61% 1014.5 hPa 0 mm - 65 W/m² -
1787443309 32.78° C 61% 1014.4 hPa 0 mm - 73 W/m² -
1787443008 32.78° C 62% 1014.4 hPa 0 mm - 85 W/m² -
1787442704 33.33° C 62% 1014.5 hPa 0 mm - 97 W/m² -
1787442401 33.33° C 61% 1014.4 hPa 0 mm - 107 W/m² -
1787442100 33.89° C 61% 1014.5 hPa 0 mm - 120 W/m² -
1787441795 33.89° C 60% 1014.4 hPa 0 mm - 134 W/m² -
1787441491 34.44° C 59% 1014.4 hPa 0 mm - 151 W/m² -
1787441186 34.44° C 56% 1014.6 hPa 0 mm - 162 W/m² -
1787440882 35° C 56% 1014.5 hPa 0 mm - 179 W/m² -
1787440581 35° C 55% 1014.6 hPa 0 mm - 194 W/m² -
1787440278 35° C 54% 1014.6 hPa 0 mm - 211 W/m² -
1787439974 35° C 54% 1014.3 hPa 0 mm - 229 W/m² -
1787439669 35.56° C 55% 1014.3 hPa 0 mm - 247 W/m² -
1787439365 35.56° C 54% 1014.1 hPa 0 mm - 269 W/m² -
1787439061 35.56° C 54% 1014.3 hPa 0 mm - 286 W/m² -
1787438756 36.11° C 53% 1014.3 hPa 0 mm - 309 W/m² -
1787438455 36.11° C 54% 1014.4 hPa 0 mm - 325 W/m² -
1787438150 36.11° C 53% 1014.3 hPa 0 mm - 346 W/m² -
1787437846 36.11° C 53% 1014.3 hPa 0 mm - 370 W/m² -

* Rain latest hour (hover to see other rain measurements)
** Current wind speed in m/s (hover to see current wind gust speed)